Regional Weather Roundup
Issued by NWS

Home | Current Version | Previous Version | Graphics & Text | Print | Product List | Glossary On
Versions: 1 2 3 4 5 6 7 8 9 10 11 12 13 14 15 16 17 18 19 20 21 22 23 24 25 26 27 28 29 30 31 32 33 34 35 36 37 38 39 40 41 42 43 44 45 46 47 48 49 50
000
ASUS43 KMKX 202111
RWRWI

WISCONSIN REGIONAL WEATHER ROUNDUP
NATIONAL WEATHER SERVICE MILWAUKEE/SULLIVAN WI
400 PM CDT FRI OCT 20 2017

NOTE: "FAIR" INDICATES FEW OR NO CLOUDS BELOW 12,000 FEET WITH NO
SIGNIFICANT WEATHER AND/OR OBSTRUCTIONS TO VISIBILITY.

WIZ001-002-006>008-014>016-023>028-202200-
NORTHWEST WISCONSIN

CITY           SKY/WX    TMP DP  RH WIND       PRES   REMARKS
SUPERIOR ARPT  MOSUNNY   76  48  37 SW9       29.72F
ASHLAND        MOSUNNY   76  46  34 S13G23    29.78F
HAYWARD        MOSUNNY   75  42  30 S16G23    29.80F
SIREN          MOSUNNY   77  42  28 S17G28    29.77F
CUMBERLAND     MOSUNNY   72  43  35 S16G23    29.81F
RICE LAKE      MOSUNNY   74  44  33 S15G24    29.83F
CHETEK         MOSUNNY   73  47  40 S9G18     29.83F
LADYSMITH      MOSUNNY   76  44  32 S10       29.87F
EAU CLAIRE     MOSUNNY   76  45  33 S14G23    29.84F
MENOMONIE      MOSUNNY   75  44  32 S13G21    29.83S
NEW RICHMOND   MOSUNNY   75  40  28 S16G22    29.79F
OSCEOLA        MOSUNNY   75  44  33 S20G25    29.80F
$$

WIZ003>005-009-010-017-018-202200-
NORTH CENTRAL WISCONSIN

CITY           SKY/WX    TMP DP  RH WIND       PRES   REMARKS
MANITOWISH WTR CLOUDY    73  42  33 S14       29.87F
ARBOR VITAE    MOSUNNY   72  42  34 S12G17    29.89F
WOODRUFF       MOSUNNY   72  42  34 S12G17    29.89F
RHINELANDER    MOSUNNY   73  44  35 S15G24    29.93S
EAGLE RIVER    CLOUDY    73  38  28 S7        29.91S
LAND O LAKES   SUNNY     74  37  25 S10       29.91S
PHILLIPS       MOSUNNY   73  43  33 S13G26    29.87S
TOMAHAWK       MOSUNNY   72  46  38 S3        29.92S
MEDFORD        MOSUNNY   74  43  32 S10G18    29.91S
MERRILL        CLOUDY    73  48  40 S9        29.93S
$$

WIZ029-030-035-036-043>047-202200-
CENTRAL WISCONSIN

CITY           SKY/WX    TMP DP  RH WIND       PRES   REMARKS
WAUSAU         MOSUNNY   73  44  35 S10       29.92F
MOSINEE        PTSUNNY   72  45  37 S9G16     29.95F
MARSHFIELD     MOSUNNY   75  41  29 S17       29.91F
STEVENS POINT  MOSUNNY   74  41  30 S8G17     29.95F
WAUPACA        MOSUNNY   78  39  24 S9        29.96S
WAUTOMA        CLOUDY    77  43  29 S12       29.96F
WISC RAPIDS    SUNNY     76  48  37 SW8       29.94F
CAMP DOUGLAS   NOT AVBL
$$

WIZ011>013-019>022-031-037>040-048>050-202200-
NORTHEAST WISCONSIN

CITY           SKY/WX    TMP DP  RH WIND       PRES   REMARKS
ANTIGO         MOSUNNY   72  46  40 S14       29.95F
SHAWANO        MOSUNNY   76  47  36 S3        29.95F
OCONTO         SUNNY     74  50  43 S9G16     29.95F
STURGEON BAY   SUNNY     66  54  65 S14       29.98S
GREEN BAY      MOSUNNY   74  52  46 S12       29.97F
MANITOWOC      MOSUNNY   64  53  67 S13       30.00F
APPLETON       PTSUNNY   75  43  31 S13       29.96F
CLINTONVILLE   MOSUNNY   73  46  38 S9        29.95F
OSHKOSH        SUNNY     73  50  44 S13       29.98F
$$

WIZ032>034-041-042-053>061-202200-
SOUTHWEST WISCONSIN

CITY           SKY/WX    TMP DP  RH WIND       PRES   REMARKS
LA CROSSE      CLOUDY    76  50  40 S14       29.88F
SPARTA         SUNNY     75  45  34 S10G17    29.92F
VIROQUA        CLOUDY    74  48  39 S13       29.93F
BOSCOBEL       MOSUNNY   77  49  37 S8        29.94F
PRAIRIE DU CHI MOSUNNY   75  43  31 SE9G17    29.93R
PLATTEVILLE    MOSUNNY   76  48  38 S17G23    29.97F
$$

WIZ056-057-062-063-064-067-068-202200-
SOUTH CENTRAL WISCONSIN

CITY           SKY/WX    TMP DP  RH WIND       PRES   REMARKS
REEDSBURG      SUNNY     74  48  39 S9G16     29.95F
BARABOO/DELLS  SUNNY     73  44  35 S15G21    29.97S
LONE ROCK      MOSUNNY   75  51  43 S10       29.95F
MINERAL POINT  MOSUNNY   73  48  40 S10       29.98F
MADISON        PTSUNNY   75  46  35 S9        29.99F
MIDDLETON      SUNNY     77  42  28 S12G17    29.99F
WATERTOWN      SUNNY     77  47  34 S12       30.00F
MONROE         CLOUDY    75  43  31 S15       30.00F
JANESVILLE     PTSUNNY   79  43  27 S14       30.01F
$$

WIZ051-052-058>065-066-070>072-202200-
SOUTHEAST WISCONSIN

CITY           SKY/WX    TMP DP  RH WIND       PRES   REMARKS
MILWAUKEE      PTSUNNY   78  51  38 S10       30.03F
WAUKESHA       SUNNY     73  46  38 S14       30.03F
MILWAUKEE/TIMM SUNNY     79  41  25 S10       30.03F
RACINE         SUNNY     73  54  51 SE8       30.05F
BURLINGTON     SUNNY     75  50  41 S8        30.03F
KENOSHA        SUNNY     77  49  37 S10       30.05F
FOND DU LAC    CLOUDY    76  43  30 S12       29.99F
SHEBOYGAN      SUNNY     71  55  56 S9        30.01S
WEST BEND      CLOUDY    77  43  29 SW13      30.01F
JUNEAU         MOSUNNY   76  43  31 S13G20    30.02S
$$

LSZ147-162-202200-
LAKE SUPERIOR

STATION/POSITION TIME  TEMP    WIND        PRES    WAVE
                       AIR SEA DIR/SP/G            HT/PER
                 (UTC) (F)     (DEG/KT/KT) (MB)    (FT/S)
W MID LAKE BUOY  2050   55 54              1008.2F   1
DEVILS ISLAND    2100   57      60/  5/  6 1007.9F
SAXON HARBOR     2040   79     210/ 10/ 21 1008.1F
$$

LMZ867-665-643>646-202200-
LAKE MICHIGAN

STATION/POSITION TIME  TEMP    WIND        PRES    WAVE
                       AIR SEA DIR/SP/G            HT/PER
                 (UTC) (F)     (DEG/KT/KT) (MB)    (FT/S)
S GREEN BAY BUOY 2030   65 58  210/ 12/ 14 1014.6F
N MID LAKE BUOY  2050   61 58  190/ 19/ 23 1015.2F   5/ 6
NORTHPORT PIER   2040   62     170/  8/ 15 1014.6F
KEWAUNEE LAKESHO 2048   56     180/ 15/ 16 1015.0F
SHEBOYGAN LAKESH 2100   58     180/ 21/ 22 1016.1F
PORT WASHINGTON  1930   61     190/  8/ 11 1017.9F
ATWATER BUOY     1909   58 54  150/ 12/ 14 1017.4F
MILWAUKEE LAKESH 2050   59     140/ 16/ 18   N/A
S MID LAKE BUOY  1950   63 61  170/ 12/ 14 1018.8F   2/ 4
KENOSHA   LAKESH 2100   61     170/ 12/ 14 1016.9
$$

TC  - TEMPERATURE IN CELSIUS
VSB - VISIBILITY IN STATUTE MILES
WCI - WIND CHILL INDEX
HX  - HEAT INDEX




USA.gov is the U.S. government's official web portal to all federal, state and local government web resources and services.